Regional Weather Roundup
Issued by NWS Bismarck, ND

Current Version | Previous Version | Text Only | Print | Product List | Glossary On
Versions: 1 2 3 4 5 6 7 8 9 10 11 12 13 14 15 16 17 18 19 20 21 22 23 24 25 26 27 28 29 30 31 32 33 34 35 36 37 38 39 40 41 42 43 44 45 46 47 48 49 50
000
ASUS43 KBIS 221410
RWRBIS

NWR BROADCAST TEXT
NATIONAL WEATHER SERVICE BISMARCK ND
900 AM CDT FRI AUG 22 2014

NOTE: "FAIR" INDICATES FEW OR NO CLOUDS BELOW 12,000 FEET WITH NO
SIGNIFICANT WEATHER AND/OR OBSTRUCTIONS TO VISIBILITY.


CITY           SKY/WX    TMP DP  RH WIND       PRES   REMARKS
WILLISTON      CLOUDY    60  55  83 N12       30.09S
MINOT          CLOUDY    59  58  96 N12       30.06S FOG
MINOT AFB      CLOUDY    59  59 100 N12       30.07S FOG
BISMARCK       CLOUDY    67  65  93 W5        30.04S
DICKINSON      CLOUDY    63  60  90 CALM      30.06R
GARRISON         N/A     62  61  96 N8        30.05R
HETTINGER ARPT CLOUDY    63  59  87 CALM      30.08R
JAMESTOWN      CLOUDY    68  66  93 NE6       30.01R
BEACH            N/A     59  59 100 NE3       30.09S FOG
CARRINGTON     CLOUDY    64  64 100 N9        30.04S FOG
CROSBY         PTSUNNY   57  57 100 N8        30.14R
HARVEY         CLOUDY    63  63 100 NE8       30.04S
HAZEN          CLOUDY    63  63 100 NE8       30.06R
LINTON         FAIR      64  64 100 E3        30.01F FOG
MANDAN         CLOUDY    64  64 100 NW3       30.06R FOG
RUGBY          PTSUNNY   61  61 100 NE7       30.06R
STANLEY        CLOUDY    57  57 100 NE8       30.10S
TIOGA          CLOUDY    57  57 100 NE13      30.13S
WATFORD CITY   CLOUDY    61  57  88 NE10      30.06S
$$

CITY           SKY/WX    TMP DP  RH WIND       PRES   REMARKS
GRAND FORKS    CLOUDY    67  65  93 N14       29.96S
GRAND FORKS AF CLOUDY    65  65 100 N10       29.99S
DEVILS LAKE    CLOUDY    63  57  82 N9        30.02S
FARGO          CLOUDY    68  68 100 N7        29.96R FOG
CANDO          CLOUDY    61  59  94 NE9       30.05S
CAVALIER       CLOUDY    63  63 100 N10       30.01S FOG
GRAFTON        CLOUDY    63  63 100 N14G22    29.99R FOG
GWINNER        CLOUDY    68  68 100 N7        30.00R
LANGDON        CLOUDY    63  59  88 N10       30.04S
ROLLA          CLOUDY    57  57 100 N14       30.08R FOG
WALHALLA         N/A     63  63 100 N9        30.03R
$$

CITY           SKY/WX    TMP DP  RH WIND       PRES   REMARKS
ABERDEEN       CLOUDY    65  65 100 N10       30.00R
MOBRIDGE       LGT RAIN  65  63  93 CALM      30.00F
BUFFALO          N/A     62  59  90 CALM      30.03R
RAPID CITY     CLOUDY    62  61  96 NW8       30.09R
GLASGOW        CLOUDY    59  57  93 NE12      30.10R
SIDNEY         CLOUDY    63  59  88 NE8       30.09S
WOLF POINT     LGT RAIN  61  57  87 NE12      30.10S
GLENDIVE       CLOUDY    61  61 100 NE8       30.09R
MILES CITY     CLOUDY    61  56  83 NW5       30.08S
BAKER          CLOUDY    62  58  86 W3        30.09S
$$

CITY           SKY/WX    TMP DP  RH WIND       PRES   REMARKS
BILLINGS       CLOUDY    56  54  93 NE6       30.10S
GREAT FALLS    LGT RAIN  52  52 100 N9        30.13S VSB 1
REGINA         PTSUNNY   59  54  82 NE8       30.18R
ESTEVAN        PTSUNNY   59  55  88 N8        30.13S
$$



USA.gov is the U.S. government's official web portal to all federal, state and local government web resources and services.